CW4740 Weather Reports


Display with metric or nautical units.
time (UTC)temp
F
wind
direction
speed
MPH
gust
MPH
rain 1hr
in
rain 24hr
in
rain mn
in
humidity
%
barometer
mb
20260508050142 80 154 1.0 2.0 0.00 0.00 0.00 83 1014.8
20260508045629 80 154 0.0 6.0 0.00 0.00 0.00 82 1014.8
20260508045146 80 154 1.0 3.0 0.00 0.00 0.00 82 1014.9
20260508044645 80 154 1.0 3.0 0.00 0.00 0.00 82 1014.8
20260508044143 80 154 1.0 5.0 0.00 0.00 0.00 83 1014.8
20260508043642 80 154 2.0 6.0 0.00 0.00 0.00 82 1014.9
20260508043221 80 154 2.0 6.0 0.00 0.00 0.00 82 1014.9
20260508042714 81 154 1.0 6.0 0.00 0.00 0.00 82 1014.9
20260508042141 80 154 1.0 5.0 0.00 0.00 0.00 82 1015.0
20260508041641 81 154 2.0 5.0 0.00 0.00 0.00 82 1015.0
20260508041137 81 154 0.0 6.0 0.00 0.00 0.00 81 1014.9
20260508040634 81 154 2.0 6.0 0.00 0.00 0.00 81 1014.9
20260508040131 81 154 0.0 6.0 0.00 0.00 0.00 81 1014.9
20260508035718 81 154 2.0 7.0 0.00 0.00 0.00 81 1015.0
20260508035229 81 154 2.0 7.0 0.00 0.00 0.00 80 1015.1
20260508034725 81 153 1.0 6.0 0.00 0.00 0.00 80 1015.0
20260508034200 81 152 2.0 7.0 0.00 0.00 0.00 80 1015.1
20260508033655 81 152 2.0 7.0 0.00 0.00 0.00 80 1015.1
20260508033233 81 152 3.0 9.0 0.00 0.00 0.00 80 1015.0
20260508032706 81 153 3.0 9.0 0.00 0.00 0.00 79 1015.0
20260508032142 81 152 2.0 7.0 0.00 0.00 0.00 80 1015.1
20260508031641 81 152 2.0 7.0 0.00 0.00 0.00 79 1015.1
20260508031139 81 151 3.0 8.0 0.00 0.00 0.00 79 1015.0
20260508030737 81 153 3.0 8.0 0.00 0.00 0.00 79 1015.0
20260508030133 81 152 3.0 8.0 0.00 0.00 0.00 79 1014.9
20260508025642 81 151 3.0 8.0 0.00 0.00 0.00 80 1014.9
20260508025200 81 151 3.0 8.0 0.00 0.00 0.00 79 1014.9
20260508024635 81 151 3.0 7.0 0.00 0.00 0.00 79 1015.0
20260508024133 81 151 3.0 7.0 0.00 0.00 0.00 79 1015.0
20260508023631 81 151 3.0 8.0 0.00 0.00 0.00 79 1015.0
20260508023149 81 151 3.0 8.0 0.00 0.00 0.00 79 1015.0
20260508022647 82 151 2.0 8.0 0.00 0.00 0.00 79 1014.9
20260508022204 82 151 3.0 8.0 0.00 0.00 0.00 78 1014.9
20260508021718 82 151 4.0 7.0 0.00 0.00 0.00 78 1014.9
20260508021636 82 151 4.0 7.0 0.00 0.00 0.00 78 1014.9
20260508021132 81 151 2.0 6.0 0.00 0.00 0.00 78 1014.9
20260508020647 81 151 2.0 8.0 0.00 0.00 0.00 77 1015.0
20260508020223 81 150 3.0 8.0 0.00 0.00 0.00 77 1015.0
20260508015708 81 150 3.0 7.0 0.00 0.00 0.00 77 1014.9
20260508015204 82 146 2.0 9.0 0.00 0.00 0.00 76 1014.9
20260508014641 82 145 4.0 9.0 0.00 0.00 0.00 76 1014.9
20260508014139 82 142 3.0 7.0 0.00 0.00 0.00 76 1014.9
20260508013637 82 141 2.0 7.0 0.00 0.00 0.00 75 1015.0
20260508013135 82 149 3.0 6.0 0.00 0.00 0.00 75 1015.0
20260508012714 82 155 2.0 7.0 0.00 0.00 0.00 74 1014.9
20260508012210 82 143 2.0 7.0 0.00 0.00 0.00 74 1014.9
20260508011646 82 138 3.0 7.0 0.00 0.00 0.00 73 1015.0
20260508011201 82 131 1.0 5.0 0.00 0.00 0.00 73 1015.0
20260508010736 82 131 2.0 5.0 0.00 0.00 0.00 73 1014.9
20260508010150 82 128 2.0 7.0 0.00 0.00 0.00 73 1015.0
20260508005635 82 128 2.0 7.0 0.00 0.00 0.00 72 1014.9
20260508005132 82 128 3.0 7.0 0.00 0.00 0.00 72 1014.9
20260508004628 82 163 3.0 5.0 0.00 0.00 0.00 72 1014.9
20260508004245 82 151 1.0 7.0 0.00 0.00 0.00 71 1014.8
20260508003739 82 134 2.0 8.0 0.00 0.00 0.00 71 1014.8
20260508003153 82 153 3.0 9.0 0.00 0.00 0.00 71 1014.7
20260508002649 83 130 5.0 9.0 0.00 0.00 0.00 71 1014.7
20260508002242 83 161 2.0 7.0 0.00 0.00 0.00 71 1014.7
20260508001736 83 143 2.0 7.0 0.00 0.00 0.00 70 1014.8
20260508001654 83 143 2.0 7.0 0.00 0.00 0.00 70 1014.8
20260508001130 83 130 1.0 9.0 0.00 0.00 0.00 70 1014.7
20260508000728 83 171 3.0 9.0 0.00 0.00 0.00 70 1014.6
20260508000205 83 145 4.0 9.0 0.00 0.00 0.00 70 1014.4
20260507235713 83 192 4.0 9.0 0.00 0.00 0.00 69 1014.3
20260507235630 83 192 4.0 9.0 0.00 0.00 0.00 69 1014.3
20260507235229 83 157 3.0 10.0 0.00 0.00 0.00 69 1014.3
20260507235147 83 157 3.0 10.0 0.00 0.00 0.00 69 1014.3
20260507234645 83 135 3.0 10.0 0.00 0.00 0.00 69 1014.1
20260507234142 83 137 4.0 8.0 0.00 0.00 0.00 69 1014.1
20260507233720 83 190 5.0 14.0 0.00 0.00 0.00 69 1014.1
20260507233638 83 190 5.0 14.0 0.00 0.00 0.00 69 1014.1
20260507233214 83 122 7.0 15.0 0.00 0.00 0.00 69 1014.1
20260507232631 83 170 6.0 11.0 0.00 0.00 0.00 70 1014.1
20260507232130 84 115 7.0 12.0 0.00 0.00 0.00 70 1014.2
20260507231727 84 201 4.0 13.0 0.00 0.00 0.00 70 1014.1
20260507231202 84 126 5.0 13.0 0.00 0.00 0.00 70 1014.1
20260507230655 84 170 5.0 12.0 0.00 0.00 0.00 69 1014.1
20260507230211 84 148 7.0 12.0 0.00 0.00 0.00 69 1014.2
20260507225716 84 121 4.0 13.0 0.00 0.00 0.00 70 1014.2
20260507225130 84 125 7.0 13.0 0.00 0.00 0.00 70 1014.1
20260507224703 84 113 6.0 14.0 0.00 0.00 0.00 70 1014.0
20260507224144 84 122 8.0 14.0 0.00 0.00 0.00 69 1014.0
20260507223718 84 139 5.0 14.0 0.00 0.00 0.00 70 1014.0
20260507223138 84 142 8.0 16.0 0.00 0.00 0.00 70 1014.0
20260507222655 85 150 8.0 16.0 0.00 0.00 0.00 69 1014.0
20260507222210 85 200 9.0 14.0 0.00 0.00 0.00 68 1013.8
20260507222128 85 200 9.0 14.0 0.00 0.00 0.00 68 1013.8
20260507221705 85 156 5.0 13.0 0.00 0.00 0.00 68 1013.8
20260507221221 86 160 7.0 14.0 0.00 0.00 0.00 67 1013.9
20260507220657 86 89 5.0 14.0 0.00 0.00 0.00 68 1013.9
20260507220213 86 130 5.0 10.0 0.00 0.00 0.00 68 1013.9
20260507215639 86 145 4.0 12.0 0.00 0.00 0.00 68 1013.8
20260507215215 86 105 7.0 13.0 0.00 0.00 0.00 68 1013.9
20260507214631 85 146 7.0 13.0 0.00 0.00 0.00 67 1013.9
20260507214128 85 120 7.0 13.0 0.00 0.00 0.00 67 1013.8
20260507213726 86 136 7.0 12.0 0.00 0.00 0.00 67 1013.8
20260507213201 86 126 6.0 12.0 0.00 0.00 0.00 67 1013.8
20260507212638 86 144 6.0 12.0 0.00 0.00 0.00 68 1013.9
20260507212135 86 117 6.0 12.0 0.00 0.00 0.00 68 1014.0
20260507211733 86 123 7.0 14.0 0.00 0.00 0.00 68 1014.0
20260507211651 86 123 7.0 14.0 0.00 0.00 0.00 68 1014.0
20260507211205 86 96 8.0 14.0 0.00 0.00 0.00 67 1014.0
20260507210740 86 138 8.0 14.0 0.00 0.00 0.00 65 1014.1
20260507210636 86 138 8.0 14.0 0.00 0.00 0.00 65 1014.1
20260507210134 86 146 5.0 12.0 0.00 0.00 0.00 67 1014.1
20260507205644 86 130 7.0 13.0 0.00 0.00 0.00 65 1014.0
20260507205142 86 113 8.0 13.0 0.00 0.00 0.00 65 1013.9
20260507204639 86 111 7.0 13.0 0.00 0.00 0.00 65 1014.0
20260507204217 86 127 6.0 13.0 0.00 0.00 0.00 64 1014.0
20260507203632 87 105 5.0 12.0 0.00 0.00 0.00 65 1014.1
20260507203151 86 120 7.0 12.0 0.00 0.00 0.00 66 1014.2
20260507202728 86 139 7.0 13.0 0.00 0.00 0.00 64 1014.1
20260507202143 87 130 7.0 12.0 0.00 0.00 0.00 66 1014.3
20260507201720 87 103 7.0 12.0 0.00 0.00 0.00 67 1014.3
20260507201235 87 109 7.0 12.0 0.00 0.00 0.00 67 1014.3
20260507201132 87 109 7.0 12.0 0.00 0.00 0.00 67 1014.3
20260507200647 87 113 6.0 12.0 0.00 0.00 0.00 66 1014.4
20260507200144 87 109 5.0 12.0 0.00 0.00 0.00 66 1014.5
20260507195632 87 142 8.0 12.0 0.00 0.00 0.00 67 1014.6
20260507195129 87 136 6.0 11.0 0.00 0.00 0.00 67 1014.6
20260507194646 87 122 6.0 10.0 0.00 0.00 0.00 67 1014.7
20260507194143 87 93 7.0 11.0 0.00 0.00 0.00 65 1014.7
20260507193641 87 120 6.0 11.0 0.00 0.00 0.00 65 1014.7
20260507193139 87 138 6.0 10.0 0.00 0.00 0.00 66 1014.7
20260507192717 87 106 5.0 12.0 0.00 0.00 0.00 67 1014.8
20260507192214 87 119 7.0 12.0 0.00 0.00 0.00 66 1014.8
20260507191630 87 146 7.0 12.0 0.00 0.00 0.00 68 1014.9
20260507191129 87 124 7.0 11.0 0.00 0.00 0.00 66 1015.0
20260507190706 87 100 7.0 11.0 0.00 0.00 0.00 68 1015.0
20260507190201 87 153 6.0 15.0 0.00 0.00 0.00 68 1015.1
20260507185647 87 91 8.0 15.0 0.00 0.00 0.00 68 1015.2
20260507185144 87 119 7.0 12.0 0.00 0.00 0.00 67 1015.3
20260507184700 87 142 6.0 11.0 0.00 0.00 0.00 67 1015.4
20260507184155 87 134 6.0 12.0 0.00 0.00 0.00 68 1015.5
20260507183751 87 124 6.0 12.0 0.00 0.00 0.00 68 1015.5
20260507183647 87 124 6.0 12.0 0.00 0.00 0.00 68 1015.5
20260507183204 87 87 8.0 12.0 0.00 0.00 0.00 69 1015.4
20260507182640 87 126 8.0 11.0 0.00 0.00 0.00 68 1015.4
20260507182157 87 150 6.0 11.0 0.00 0.00 0.00 68 1015.5
20260507181714 87 112 6.0 11.0 0.00 0.00 0.00 69 1015.6
20260507181129 87 89 4.0 11.0 0.00 0.00 0.00 68 1015.6
20260507180726 88 138 6.0 11.0 0.00 0.00 0.00 67 1015.7
20260507180201 87 109 4.0 11.0 0.00 0.00 0.00 69 1015.8
20260507175629 87 145 7.0 11.0 0.00 0.00 0.00 68 1015.9
20260507175207 87 91 4.0 12.0 0.00 0.00 0.00 69 1015.9
20260507174743 87 153 7.0 12.0 0.00 0.00 0.00 69 1015.8
20260507174640 87 153 7.0 12.0 0.00 0.00 0.00 69 1015.8
20260507174213 87 94 7.0 11.0 0.00 0.00 0.00 68 1016.0
20260507174130 87 94 7.0 11.0 0.00 0.00 0.00 68 1016.0
20260507173726 86 117 7.0 11.0 0.00 0.00 0.00 68 1016.1
20260507173142 87 111 4.0 11.0 0.00 0.00 0.00 69 1016.2
20260507172701 86 102 7.0 11.0 0.00 0.00 0.00 70 1016.2
20260507172159 86 119 7.0 11.0 0.00 0.00 0.00 70 1016.2
20260507171636 86 145 6.0 11.0 0.00 0.00 0.00 71 1016.2
20260507171133 86 131 8.0 11.0 0.00 0.00 0.00 70 1016.3
20260507170649 86 133 6.0 11.0 0.00 0.00 0.00 70 1016.2
20260507170129 86 145 6.0 9.0 0.00 0.00 0.00 71 1016.3
20260507165714 86 134 5.0 11.0 0.00 0.00 0.00 70 1016.4
20260507165128 86 140 4.0 12.0 0.00 0.00 0.00 72 1016.5
20260507164629 86 134 7.0 10.0 0.00 0.00 0.00 70 1016.5
20260507164243 86 125 5.0 11.0 0.00 0.00 0.00 72 1016.6
20260507164139 86 125 5.0 11.0 0.00 0.00 0.00 72 1016.6
20260507163637 86 163 6.0 11.0 0.00 0.00 0.00 71 1016.6
20260507163135 86 88 6.0 10.0 0.00 0.00 0.00 71 1016.7
20260507162652 86 123 4.0 12.0 0.00 0.00 0.00 71 1016.6
20260507162149 86 140 7.0 12.0 0.00 0.00 0.00 71 1016.7
20260507161706 86 107 4.0 12.0 0.00 0.00 0.00 71 1016.7
20260507161143 86 121 6.0 12.0 0.00 0.00 0.00 71 1016.7
20260507160645 87 94 6.0 10.0 0.00 0.00 0.00 70 1016.7
20260507160142 86 117 6.0 10.0 0.00 0.00 0.00 69 1016.7
20260507155629 87 128 5.0 10.0 0.00 0.00 0.00 69 1016.9
20260507155227 88 182 4.0 7.0 0.00 0.00 0.00 68 1016.9
20260507154642 88 77 2.0 5.0 0.00 0.00 0.00 66 1016.9
20260507154139 87 231 2.0 5.0 0.00 0.00 0.00 63 1016.9
20260507153656 87 211 1.0 5.0 0.00 0.00 0.00 64 1016.9
20260507153152 86 263 1.0 7.0 0.00 0.00 0.00 66 1016.8
20260507152649 86 257 1.0 7.0 0.00 0.00 0.00 66 1016.9
20260507152146 86 269 1.0 9.0 0.00 0.00 0.00 66 1016.9
20260507151643 85 321 2.0 6.0 0.00 0.00 0.00 65 1016.9
20260507151201 85 241 2.0 7.0 0.00 0.00 0.00 68 1016.9
20260507150737 85 241 3.0 8.0 0.00 0.00 0.00 65 1017.0
20260507150128 85 284 3.0 7.0 0.00 0.00 0.00 67 1017.0
20260507145637 85 266 2.0 8.0 0.00 0.00 0.00 68 1017.0
20260507145135 85 249 4.0 8.0 0.00 0.00 0.00 68 1017.2
20260507144633 85 169 1.0 5.0 0.00 0.00 0.00 70 1017.1
20260507144130 84 245 2.0 6.0 0.00 0.00 0.00 71 1017.1
20260507143628 84 259 1.0 6.0 0.00 0.00 0.00 73 1017.0
20260507143206 84 260 2.0 6.0 0.00 0.00 0.00 73 1017.0
20260507142702 83 232 2.0 7.0 0.00 0.00 0.00 73 1017.1
20260507142159 83 244 3.0 8.0 0.00 0.00 0.00 73 1017.1
20260507141716 83 265 3.0 8.0 0.00 0.00 0.00 74 1017.1
20260507141151 83 260 3.0 7.0 0.00 0.00 0.00 73 1017.3
20260507140744 83 233 3.0 7.0 0.00 0.00 0.00 73 1017.3
20260507140641 83 233 3.0 7.0 0.00 0.00 0.00 73 1017.3
20260507140143 83 248 1.0 7.0 0.00 0.00 0.00 74 1017.2
20260507135652 83 200 2.0 5.0 0.00 0.00 0.00 75 1017.3
20260507135128 82 170 3.0 6.0 0.00 0.00 0.00 76 1017.3
20260507134719 82 237 3.0 6.0 0.00 0.00 0.00 78 1017.3
20260507134138 82 254 3.0 7.0 0.00 0.00 0.00 78 1017.3
20260507133633 82 246 3.0 7.0 0.00 0.00 0.00 78 1017.3
20260507133150 82 267 2.0 6.0 0.00 0.00 0.00 79 1017.3
20260507132742 82 191 2.0 6.0 0.00 0.00 0.00 80 1017.3
20260507132236 81 216 2.0 5.0 0.00 0.00 0.00 79 1017.3
20260507132154 81 216 2.0 5.0 0.00 0.00 0.00 79 1017.3
20260507131651 81 179 1.0 5.0 0.00 0.00 0.00 81 1017.3
20260507131248 81 238 3.0 5.0 0.00 0.00 0.00 80 1017.4
20260507130643 81 264 2.0 6.0 0.00 0.00 0.00 80 1017.2
20260507130200 81 266 3.0 6.0 0.00 0.00 0.00 80 1017.3
20260507125729 80 247 1.0 7.0 0.00 0.00 0.00 81 1017.3
20260507125205 80 243 2.0 5.0 0.00 0.00 0.00 82 1017.3
20260507124642 80 242 0.0 4.0 0.00 0.00 0.00 82 1017.3
20260507124200 79 240 1.0 6.0 0.00 0.00 0.00 83 1017.3
20260507123657 79 240 2.0 6.0 0.00 0.00 0.00 83 1017.2
20260507123133 79 258 1.0 4.0 0.00 0.00 0.00 85 1017.3
20260507122712 78 259 0.0 4.0 0.00 0.00 0.00 85 1017.4
20260507122147 78 113 1.0 3.0 0.00 0.00 0.00 86 1017.4
20260507121704 77 113 2.0 3.0 0.00 0.00 0.00 87 1017.4
20260507121200 77 113 0.0 2.0 0.00 0.00 0.00 88 1017.3
20260507120637 77 113 0.0 0.0 0.00 0.00 0.00 89 1017.4
20260507120215 76 113 0.0 0.0 0.00 0.00 0.00 90 1017.3
20260507115700 76 113 0.0 0.0 0.00 0.00 0.00 91 1017.2
20260507115217 75 113 0.0 0.0 0.00 0.00 0.00 92 1017.2
20260507114652 75 113 0.0 0.0 0.00 0.00 0.00 93 1017.1
20260507114129 74 113 0.0 0.0 0.00 0.00 0.00 93 1016.9
20260507113647 74 113 0.0 0.0 0.00 0.00 0.00 93 1016.9
20260507113225 74 113 0.0 0.0 0.00 0.00 0.00 94 1016.7
20260507112701 73 113 0.0 0.0 0.00 0.00 0.00 94 1016.6
20260507112158 73 113 0.0 0.0 0.00 0.00 0.00 94 1016.7
20260507111715 73 113 0.0 0.0 0.00 0.00 0.00 93 1016.5
20260507111633 73 113 0.0 0.0 0.00 0.00 0.00 93 1016.5
20260507111131 72 113 0.0 0.0 0.00 0.00 0.00 93 1016.5
20260507110649 72 113 0.0 0.0 0.00 0.00 0.00 92 1016.4
20260507110146 72 113 0.0 0.0 0.00 0.00 0.00 92 1016.1
20260507105632 72 113 0.0 0.0 0.00 0.00 0.00 92 1016.1
20260507105129 72 113 0.0 0.0 0.00 0.00 0.00 91 1016.0
20260507104645 72 113 0.0 0.0 0.00 0.00 0.00 91 1015.8
20260507104141 73 113 0.0 0.0 0.00 0.00 0.00 91 1015.8
20260507103637 73 113 0.0 0.0 0.00 0.00 0.00 91 1015.9
20260507103154 73 113 0.0 0.0 0.00 0.00 0.00 90 1015.5
20260507102651 73 113 0.0 0.0 0.00 0.00 0.00 90 1015.6
20260507102207 73 113 0.0 0.0 0.00 0.00 0.00 90 1015.5
20260507101704 74 113 0.0 0.0 0.00 0.00 0.00 90 1015.4
20260507101201 74 113 0.0 0.0 0.00 0.00 0.00 90 1015.4
20260507100718 74 113 0.0 0.0 0.00 0.00 0.00 90 1015.4
20260507100636 74 113 0.0 0.0 0.00 0.00 0.00 90 1015.4
20260507100134 74 113 0.0 0.0 0.00 0.00 0.00 89 1015.3
20260507095640 74 113 0.0 0.0 0.00 0.00 0.00 89 1015.2
20260507095155 75 113 0.0 0.0 0.00 0.00 0.00 89 1015.3
20260507094712 75 113 0.0 0.0 0.00 0.00 0.00 89 1015.4
20260507094629 75 113 0.0 0.0 0.00 0.00 0.00 89 1015.4
20260507094146 75 113 0.0 0.0 0.00 0.00 0.00 89 1015.2
20260507093642 75 113 0.0 0.0 0.00 0.00 0.00 89 1015.2
20260507093241 75 113 0.0 0.0 0.00 0.00 0.00 89 1015.2
20260507092635 75 113 0.0 0.0 0.00 0.00 0.00 89 1015.1
20260507092153 75 113 0.0 0.0 0.00 0.00 0.00 89 1015.2
20260507091631 75 113 0.0 0.0 0.00 0.00 0.00 89 1015.2
20260507091128 75 113 0.0 0.0 0.00 0.00 0.00 89 1015.1
20260507090747 75 113 0.0 0.0 0.00 0.00 0.00 88 1015.1
20260507090643 75 113 0.0 0.0 0.00 0.00 0.00 88 1015.1
20260507090141 75 113 0.0 0.0 0.00 0.00 0.00 88 1015.1
20260507085747 75 113 0.0 0.0 0.00 0.00 0.00 88 1015.2
20260507085705 75 113 0.0 0.0 0.00 0.00 0.00 88 1015.2
20260507085140 75 113 0.0 0.0 0.00 0.00 0.00 88 1015.1
20260507084716 75 113 0.0 0.0 0.00 0.00 0.00 88 1015.1
20260507084247 75 113 0.0 0.0 0.00 0.00 0.00 88 1015.0
20260507084205 75 113 0.0 0.0 0.00 0.00 0.00 88 1015.0
20260507083740 75 113 0.0 0.0 0.00 0.00 0.00 88 1015.0
20260507083136 76 113 0.0 0.0 0.00 0.00 0.00 88 1014.9
20260507082652 76 113 0.0 0.0 0.00 0.00 0.00 88 1014.9
20260507082129 76 113 0.0 0.0 0.00 0.00 0.00 87 1015.0
20260507081647 76 113 0.0 0.0 0.00 0.00 0.00 87 1015.0
20260507081245 76 113 0.0 0.0 0.00 0.00 0.00 87 1015.0
20260507080640 76 113 0.0 2.0 0.00 0.00 0.00 87 1014.9
20260507080158 76 113 1.0 3.0 0.00 0.00 0.00 87 1015.1
20260507075646 76 113 0.0 2.0 0.00 0.00 0.00 87 1015.0
20260507075144 76 113 0.0 3.0 0.00 0.00 0.00 86 1015.2
20260507074642 76 113 1.0 3.0 0.00 0.00 0.00 86 1015.1
20260507074220 76 113 0.0 2.0 0.00 0.00 0.00 86 1015.3
20260507073715 76 113 1.0 2.0 0.00 0.00 0.00 86 1015.3
20260507073131 76 113 1.0 2.0 0.00 0.00 0.00 85 1015.3
20260507072726 76 113 1.0 2.0 0.00 0.00 0.00 85 1015.3
20260507072221 76 113 1.0 2.0 0.00 0.00 0.00 84 1015.3
20260507071655 76 113 0.0 2.0 0.00 0.00 0.00 84 1015.2
20260507071150 76 113 1.0 2.0 0.00 0.00 0.00 83 1015.4
20260507070646 76 113 0.0 2.0 0.00 0.00 0.00 83 1015.4
20260507070203 76 113 0.0 0.0 0.00 0.00 0.00 82 1015.5
20260507065729 76 113 0.0 0.0 0.00 0.00 0.00 82 1015.6
20260507065144 76 113 0.0 2.0 0.00 0.00 0.00 81 1015.7
20260507064642 76 113 0.0 4.0 0.00 0.00 0.00 81 1015.7
20260507064218 77 113 1.0 4.0 0.00 0.00 0.00 80 1015.8
20260507063632 77 113 1.0 4.0 0.00 0.00 0.00 80 1016.0
20260507063224 77 113 2.0 4.0 0.00 0.00 0.00 80 1016.1
20260507062637 77 113 0.0 3.0 0.00 0.00 0.00 79 1016.1
20260507062150 77 113 1.0 4.0 0.00 0.00 0.00 79 1016.0
20260507061646 77 113 0.0 4.0 0.00 0.00 0.00 79 1016.0
20260507061144 77 113 1.0 3.0 0.00 0.00 0.00 79 1015.9
20260507060640 77 113 1.0 4.0 0.00 0.00 0.00 78 1015.8
20260507060216 77 113 1.0 3.0 0.00 0.00 0.00 78 1015.9
20260507055642 77 113 0.0 2.0 0.00 0.00 0.00 77 1016.1
20260507055219 77 113 0.0 4.0 0.00 0.00 0.00 77 1016.2
20260507054636 77 113 2.0 4.0 0.00 0.00 0.00 77 1016.3
20260507054133 77 113 1.0 6.0 0.00 0.00 0.00 77 1016.2
20260507053650 77 113 2.0 6.0 0.00 0.00 0.00 77 1016.4
20260507053146 78 113 2.0 7.0 0.00 0.00 0.00 77 1016.6
20260507052725 78 113 2.0 7.0 0.00 0.00 0.00 77 1016.5
20260507052642 78 113 2.0 7.0 0.00 0.00 0.00 77 1016.5
20260507052240 78 113 1.0 6.0 0.00 0.00 0.00 77 1016.5
20260507051735 78 113 3.0 6.0 0.00 0.00 0.00 77 1016.5
20260507051653 78 113 3.0 6.0 0.00 0.00 0.00 77 1016.5
20260507051210 78 113 1.0 7.0 0.00 0.00 0.00 77 1016.6
20260507050646 78 113 2.0 7.0 0.00 0.00 0.00 77 1016.7